844  
ASUS43 KFSD 180110  
RWRFSD  
 
WEATHER ROUNDUP FOR SE SOUTH DAKOTA/SW MINNESOTA/NW IOWA  
NATIONAL WEATHER SERVICE SIOUX FALLS SD  
800 PM CDT FRI AUG 17 2018  
 
NOTE: "FAIR" INDICATES FEW OR NO CLOUDS BELOW 12,000 FEET WITH NO  
SIGNIFICANT WEATHER AND OR S TO VISIBILITY
.  
 
 
SDZ038>040-050-052>070-180200-  
SOUTHEAST SOUTH DAKOTA  
 
CITY SKY/WX TMP DP RH WIND PRES REMARKS
 
BROOKINGS CLEAR 72 66 81 NE5 30.11S  
CHAMBERLAIN PTCLDY 80 67 65 S3 30.07F  
HURON PTCLDY 77 63 61 E6 30.07S  
MADISON FAIR 70 70 100 NE6 30.11S  
MITCHELL CLEAR 81 58 45 N5 30.08S  
SIOUX FALLS CLOUDY 76 64 66 NE5 30.09S  
WINNER FAIR 77 66 68 E7 30.09F  
YANKTON CLEAR 77 67 71 N6 30.08S  

 
 
MNZ071-072-080-081-089-090-097-098-180200-  
SOUTHWEST MINNESOTA  
 
CITY SKY/WX TMP DP RH WIND PRES REMARKS
 
FAIRMONT CLEAR 71 68 90 N3 30.08S  
JACKSON CLEAR 70 64 83 CALM 30.10S  
LUVERNE CLEAR 72 63 73 NE3 30.10S  
MARSHALL CLEAR 72 67 84 NW5 30.10S  
MONTEVIDEO CLEAR 73 63 68 CALM 30.10S  
PIPESTONE CLEAR 72 64 78 CALM 30.12S  
REDWOOD FALLS CLEAR 74 67 78 NW5 30.08S  
TRACY CLEAR 72 67 86 CALM 30.10S  
WINDOM CLEAR 70 63 78 NW5 30.09S  
WORTHINGTON CLEAR 71 66 84 N5 30.11S  

 
 
IAZ001>003-012>014-020>022-031-032-NEZ013-014-SDZ071-180200-  
NORTHWEST IOWA  
 
CITY SKY/WX TMP DP RH WIND PRES REMARKS
 
CHEROKEE CLEAR 76 67 75 CALM 30.08S  
DENISON CLEAR 77 68 73 N5 30.07F  
ESTHERVILLE CLEAR 70 67 90 N5 30.08S  
ORANGE CITY CLEAR 79 64 61 CALM 30.09S  
SHELDON CLEAR 73 72 94 NE5 30.08S  
SIOUX CITY CLEAR 79 67 66 NE6 30.06S  
SPENCER CLEAR 73 65 75 N6 30.09R  
STORM LAKE CLEAR 73 66 78 N5 30.08S  

 
 
ABBREVIATIONS USED IN REMARKS  
TC - TEMPERATURE IN CELSIUS  
WCI - WIND CHILL INDEX  
HX - HEAT INDEX  
VSB - VISIBILITY  
 
 
 
CLICK HERE TO GO TO PREVIOUS BULLETINS.

The Nexlab SD Page
The Nexlab IA Page
The Nexlab MN Page
The Nexlab NE Page Main Text Page